Wind_Speed
11 12 11 12 13 13 14 13 13 14 13 11 10 9 8 7 7 6 6 6 6 6 7 7 9 10 11 12 13 14 15 16 17 18 19 20 21 22 22 22 23 23 23 23
12 12 12 12 13 13 14 15 14 14 12 10 9 9 8 8 8 7 7 7 8 8 8 9 10 11 12 13 15 16 17 18 19 20 21 22 23 23 24 24 24 25 25 25
12 12 12 12 13 13 14 14 14 14 12 11 10 10 10 9 9 9 9 9 10 10 11 11 12 13 14 15 16 18 19 20 21 21 22 23 24 25 26 26 27 27 27 27
13 13 12 12 13 13 13 13 14 14 12 12 12 12 12 11 11 11 11 11 12 12 13 14 15 16 17 18 19 20 21 22 23 23 24 25 27 28 29 29 30 30 30 30
14 14 13 13 12 13 14 13 14 13 13 13 13 13 13 13 13 13 13 14 14 15 16 17 18 19 20 21 22 23 24 24 25 26 27 29 30 31 32 32 32 33 34 34
16 15 15 14 13 14 15 14 14 14 14 14 15 15 14 15 15 15 16 16 17 18 19 20 21 22 23 24 24 25 26 27 28 29 30 32 33 34 34 35 35 36 37 38
18 18 19 16 15 17 17 15 15 16 17 17 17 16 16 17 17 18 19 20 20 21 22 23 24 25 26 26 27 28 29 30 31 32 33 34 36 37 38 38 39 40 40 41
21 21 21 18 19 19 19 18 18 19 19 19 19 19 20 21 21 21 22 23 24 25 26 26 27 28 29 29 30 31 32 33 34 35 36 38 40 40 41 42 43 43 43 43
24 24 23 22 22 22 22 22 22 22 22 22 22 23 23 24 24 25 26 27 28 29 29 29 30 31 32 33 34 34 35 36 37 38 40 41 43 44 45 45 45 44 44 44
27 27 26 26 26 26 26 26 25 26 26 26 26 27 27 28 28 29 30 31 31 32 33 33 33 34 35 36 37 38 38 39 40 41 42 44 45 46 47 47 46 47 47 46
30 30 30 30 30 29 29 30 29 29 30 30 30 30 31 31 32 32 33 34 35 36 36 37 37 37 38 39 39 40 41 42 43 44 45 46 47 48 49 49 49 50 50 50
34 35 35 34 33 33 33 33 33 33 33 34 34 34 34 35 36 36 37 38 38 39 39 40 40 41 41 41 42 43 44 45 46 47 48 49 50 51 52 52 53 53 54 54
39 38 38 38 37 37 37 37 37 37 37 37 38 38 38 39 39 40 40 40 41 42 42 43 43 43 44 44 45 46 47 48 49 50 51 52 54 55 55 55 56 57 58 58
42 42 42 41 41 40 40 41 41 40 40 40 41 41 41 41 42 42 42 42 43 44 44 44 45 45 46 46 47 48 50 51 52 53 54 56 57 59 59 59 59 59 61 61
44 44 44 44 43 43 43 43 42 42 42 42 43 43 43 43 43 44 44 44 44 45 45 46 47 47 48 49 50 51 52 53 55 56 58 59 61 62 62 62 62 62 63 62
46 46 46 45 45 45 45 45 44 45 45 45 45 45 45 45 46 46 46 46 47 47 48 49 49 49 50 52 53 54 55 57 58 60 61 63 64 65 65 65 65 64 64 63
47 46 47 47 47 47 47 47 47 47 47 47 47 47 47 48 48 48 49 49 49 50 50 51 52 52 54 55 56 57 58 60 61 63 64 65 66 67 67 66 66 65 64 63
46 46 47 48 49 49 49 49 49 49 49 49 49 49 49 49 50 50 51 51 51 51 52 54 54 56 57 58 59 60 61 62 64 65 66 67 68 68 68 67 66 66 64 63
47 47 47 48 48 49 49 49 50 50 50 50 50 50 51 51 51 52 52 53 53 54 55 56 57 58 60 61 62 63 64 65 66 67 68 68 68 68 68 67 67 66 64 62
48 48 48 48 48 48 48 49 49 50 50 51 51 52 52 52 53 53 53 54 55 57 58 59 60 61 62 63 64 65 66 67 68 68 69 69 69 68 68 67 66 64 61 59
47 47 48 48 47 48 48 49 49 50 51 52 52 53 53 54 54 55 56 56 57 59 60 61 62 63 64 65 66 67 67 68 69 69 69 69 69 68 67 65 63 60 57 55
48 48 48 48 49 49 49 50 50 51 52 53 53 54 55 56 57 57 58 58 59 61 62 63 64 65 66 67 67 68 68 69 69 69 69 68 67 66 64 62 59 57 55 53
50 50 50 50 50 50 51 52 53 53 54 55 55 56 57 58 59 59 60 61 62 63 64 65 66 67 67 68 68 68 69 69 68 67 67 66 64 62 60 58 56 54 53 51
52 52 52 52 52 53 53 54 55 55 56 57 58 59 60 60 61 62 63 63 64 65 66 67 67 67 68 68 68 68 67 67 65 64 62 61 60 58 56 55 54 52 51 49
54 54 55 55 55 56 56 57 57 58 59 60 61 61 62 63 64 64 65 65 66 66 67 67 67 67 67 66 66 64 63 62 61 60 58 57 56 54 53 52 51 50 48 47
57 57 57 58 58 59 60 60 61 61 62 62 63 63 64 64 64 65 65 66 66 66 65 64 64 64 63 62 61 60 59 58 57 57 55 53 52 51 51 50 49 48 47 46
59 59 60 60 61 62 62 63 63 63 63 63 63 64 64 64 64 64 64 64 63 63 62 61 60 60 59 59 57 56 55 54 53 53 52 51 51 51 51 50 48 46 46 46
Wind_Direction
213 218 220 219 216 214 215 213 218 233 240 234 235 240 243 247 253 259 266 274 281 288 296 304 312 319 324 327 329 331 332 332 332 332 332 332 333 333 332 331 331 331 330 330
221 225 229 227 224 222 221 224 226 232 239 237 240 243 244 248 253 259 266 273 279 286 293 299 305 311 315 318 320 322 324 325 325 326 326 327 328 328 327 327 326 325 325 324
226 232 232 230 228 228 228 230 234 238 241 244 246 250 252 254 258 263 268 275 281 286 292 297 301 306 309 313 315 317 317 319 319 319 320 321 322 322 322 321 320 319 318 318
227 231 237 230 229 232 233 234 238 242 246 249 252 253 256 259 263 268 272 278 282 288 293 297 301 304 307 309 311 312 313 315 315 315 315 316 317 317 316 316 315 315 314 313
231 235 239 238 233 237 239 240 242 246 249 252 255 257 260 264 267 271 275 281 285 289 293 295 298 300 303 304 306 308 310 311 312 312 312 312 313 313 312 311 311 310 310 309
239 241 244 241 237 243 245 247 248 251 254 257 259 261 264 268 271 275 279 282 285 289 292 295 297 299 301 303 304 305 307 308 309 310 310 311 311 311 310 309 308 307 307 306
245 246 248 247 247 249 252 253 254 257 259 262 263 265 268 271 274 277 280 283 286 290 292 295 296 298 300 301 302 303 304 306 307 308 309 309 310 310 309 308 307 306 305 303
247 249 252 252 253 255 259 260 260 261 263 265 268 270 271 274 278 280 282 285 287 290 292 294 295 297 298 298 299 300 302 303 305 306 307 308 309 309 308 307 305 305 304 303
249 253 256 256 257 259 260 261 263 265 267 268 271 272 274 277 279 281 283 286 288 289 290 292 293 294 295 296 297 298 299 301 303 304 306 307 308 308 307 306 305 304 304 302
253 255 257 258 259 261 262 265 266 268 270 271 273 274 275 277 279 282 284 286 287 288 289 290 291 292 293 294 295 297 298 300 302 304 305 306 307 307 307 306 305 304 304 302
254 256 257 259 260 262 265 267 268 269 271 273 274 275 276 277 280 282 284 285 286 287 289 290 291 291 292 293 295 297 299 301 302 304 305 306 307 308 307 306 305 304 303 302
254 256 258 260 262 264 265 267 268 270 272 273 275 276 277 279 281 282 284 285 286 287 287 289 290 291 292 293 295 297 299 301 302 303 305 306 307 307 307 306 305 303 303 302
256 258 260 261 262 263 265 267 268 270 272 274 275 276 277 279 281 282 283 284 285 286 287 288 290 291 293 294 295 297 299 301 302 303 304 305 307 307 306 305 305 303 302 302
256 258 260 261 262 264 265 267 268 270 272 273 274 275 276 278 280 282 283 283 284 286 287 289 290 292 293 294 295 297 299 301 302 303 304 305 306 306 306 305 304 303 302 302
257 259 260 262 263 265 266 267 268 270 271 272 274 275 276 277 279 281 282 283 284 286 287 289 290 292 293 294 295 297 299 300 301 302 303 304 305 305 305 304 304 303 302 301
257 259 261 263 264 265 266 267 268 270 271 272 273 275 276 277 279 281 282 283 284 285 287 288 290 291 292 294 295 297 298 300 301 302 303 304 305 305 305 304 304 303 302 301
259 260 261 263 264 265 267 268 269 270 271 272 274 275 276 278 280 281 282 283 284 285 287 288 290 291 292 293 295 297 298 300 301 302 303 304 305 305 305 304 303 303 302 301
261 261 262 263 264 265 266 267 269 270 272 273 274 275 277 279 280 281 282 283 284 285 287 288 290 291 293 294 295 297 298 300 301 302 303 304 304 305 305 304 303 303 302 301
262 263 263 264 265 266 267 268 270 271 272 273 274 276 277 279 280 281 282 283 284 286 287 288 290 291 293 295 296 297 299 300 301 302 303 304 304 304 304 304 303 302 301 300
263 263 264 265 266 267 269 270 271 272 272 273 275 276 277 279 280 281 282 284 285 286 288 289 291 292 294 295 296 297 298 299 300 301 302 303 303 304 304 303 303 302 301 300
263 264 265 266 267 268 269 270 271 272 272 274 275 276 278 279 280 281 283 284 285 287 288 290 291 293 294 295 296 297 298 299 300 301 302 302 303 303 303 303 302 302 301 300
263 264 265 266 267 268 269 270 271 272 273 275 276 277 278 279 281 282 284 285 286 287 289 290 292 293 294 295 296 297 298 299 300 301 301 302 302 303 303 302 301 301 300 299
264 265 266 267 268 269 270 271 272 274 275 276 277 278 279 280 282 283 284 285 287 288 290 291 292 293 294 295 296 297 298 299 299 300 301 302 302 302 302 302 301 300 299 299
265 266 267 268 269 270 272 273 274 275 276 277 278 279 280 281 282 283 285 286 287 289 290 291 292 293 294 294 295 296 297 298 299 300 301 302 302 302 302 301 300 299 298 298
266 267 268 269 270 271 273 274 275 275 276 277 279 280 280 281 282 284 285 286 288 289 290 291 291 292 293 294 295 296 297 298 299 299 300 301 301 301 301 301 301 300 298 297
266 267 268 270 271 272 273 274 275 276 277 278 279 280 281 282 283 285 286 286 287 288 289 290 291 292 292 293 294 295 296 298 299 300 300 300 300 301 302 302 301 299 298 297
266 267 269 270 271 273 274 275 276 277 278 279 280 280 281 282 284 285 285 286 287 288 289 289 290 291 292 292 294 295 297 298 298 299 299 299 300 301 302 302 301 300 299 298
Height
5824 5826 5828 5830 5832 5834 5835 5837 5838 5838 5838 5840 5841 5842 5843 5843 5844 5844 5844 5844 5844 5844 5843 5843 5842 5841 5841 5839 5838 5837 5835 5833 5832 5830 5828 5826 5824 5822 5820 5817 5815 5813 5811 5808
5824 5825 5827 5828 5830 5832 5833 5834 5835 5836 5837 5838 5839 5840 5840 5841 5841 5842 5842 5842 5842 5841 5841 5841 5840 5839 5838 5837 5835 5834 5832 5830 5829 5827 5824 5822 5820 5818 5816 5814 5811 5809 5807 5805
5822 5823 5825 5827 5828 5829 5831 5832 5833 5834 5836 5836 5837 5838 5838 5839 5839 5839 5840 5840 5839 5839 5838 5838 5837 5836 5835 5834 5832 5830 5829 5827 5825 5823 5821 5818 5816 5814 5811 5809 5807 5804 5802 5800
5820 5822 5823 5827 5826 5827 5828 5830 5831 5832 5833 5834 5834 5835 5835 5836 5836 5836 5837 5836 5836 5835 5835 5834 5833 5832 5831 5830 5828 5826 5824 5822 5820 5818 5816 5813 5811 5808 5806 5803 5801 5798 5796 5794
5818 5819 5820 5822 5824 5824 5826 5827 5828 5829 5830 5831 5831 5832 5832 5833 5833 5833 5833 5833 5832 5831 5831 5830 5829 5827 5826 5825 5823 5821 5819 5817 5815 5812 5810 5807 5805 5802 5799 5796 5793 5791 5788 5786
5815 5816 5817 5820 5821 5821 5824 5824 5826 5826 5827 5827 5828 5828 5830 5829 5829 5829 5829 5828 5827 5827 5826 5825 5823 5822 5820 5819 5817 5815 5813 5810 5808 5805 5803 5800 5797 5793 5790 5787 5784 5782 5779 5776
5811 5811 5813 5815 5817 5818 5820 5822 5822 5822 5823 5823 5824 5825 5825 5824 5824 5824 5824 5823 5822 5821 5820 5819 5817 5816 5814 5812 5810 5808 5805 5803 5800 5797 5794 5791 5788 5784 5781 5777 5774 5771 5768 5765
5806 5807 5810 5811 5812 5814 5815 5816 5816 5817 5818 5818 5819 5819 5819 5819 5818 5818 5818 5817 5816 5815 5813 5812 5810 5809 5807 5805 5803 5800 5797 5795 5792 5788 5785 5781 5778 5774 5769 5766 5762 5758 5755 5751
5802 5804 5805 5806 5807 5808 5809 5810 5811 5811 5812 5812 5813 5813 5813 5813 5812 5811 5811 5810 5809 5807 5806 5805 5803 5801 5799 5796 5794 5791 5788 5785 5782 5778 5775 5771 5766 5762 5757 5753 5749 5745 5741 5738
5795 5796 5798 5799 5800 5801 5802 5803 5804 5805 5805 5806 5806 5806 5806 5805 5805 5804 5803 5802 5800 5799 5797 5796 5794 5792 5789 5787 5784 5781 5778 5775 5771 5767 5763 5759 5754 5749 5744 5739 5735 5731 5726 5723
5788 5789 5790 5791 5793 5794 5795 5796 5797 5797 5797 5798 5798 5798 5797 5797 5796 5795 5794 5793 5791 5790 5788 5786 5784 5782 5779 5776 5773 5770 5767 5763 5759 5755 5751 5746 5741 5736 5731 5726 5720 5716 5712 5707
5779 5780 5782 5783 5785 5786 5787 5788 5788 5788 5789 5788 5788 5788 5788 5787 5787 5785 5784 5783 5781 5779 5777 5775 5773 5770 5767 5764 5761 5758 5754 5751 5747 5742 5738 5733 5728 5723 5717 5711 5706 5700 5695 5690
5769 5771 5772 5774 5775 5776 5777 5778 5778 5779 5779 5779 5778 5778 5777 5777 5776 5775 5773 5772 5770 5768 5766 5763 5761 5758 5755 5752 5748 5745 5741 5737 5733 5728 5723 5718 5713 5708 5703 5697 5690 5684 5678 5672
5758 5760 5761 5763 5764 5766 5766 5767 5767 5768 5768 5768 5767 5766 5766 5765 5764 5763 5761 5760 5758 5755 5753 5751 5748 5745 5742 5738 5735 5731 5727 5723 5718 5714 5709 5703 5697 5691 5686 5680 5675 5669 5662 5655
5747 5748 5750 5751 5753 5754 5754 5755 5755 5756 5756 5756 5755 5755 5754 5752 5751 5750 5749 5747 5745 5743 5740 5737 5735 5732 5728 5725 5721 5717 5713 5708 5703 5698 5693 5687 5681 5675 5668 5662 5656 5651 5645 5638
5734 5736 5738 5739 5740 5741 5742 5742 5743 5743 5743 5743 5743 5742 5741 5740 5738 5737 5735 5734 5731 5729 5726 5724 5721 5718 5714 5710 5706 5702 5697 5692 5687 5682 5676 5670 5663 5657 5650 5644 5638 5631 5625 5619
5722 5724 5725 5726 5727 5728 5729 5729 5729 5729 5729 5729 5729 5728 5727 5726 5725 5723 5721 5719 5717 5715 5712 5709 5706 5703 5699 5695 5691 5686 5681 5676 5670 5664 5658 5652 5645 5638 5631 5625 5618 5612 5606 5600
5708 5710 5711 5712 5713 5714 5715 5715 5715 5715 5715 5715 5714 5714 5713 5712 5710 5708 5706 5704 5702 5700 5697 5694 5690 5687 5683 5678 5674 5669 5664 5658 5652 5646 5640 5633 5626 5619 5612 5606 5599 5593 5587 5581
5694 5696 5697 5698 5699 5699 5700 5700 5701 5701 5700 5700 5699 5699 5698 5696 5695 5693 5691 5689 5687 5684 5682 5678 5674 5670 5666 5661 5656 5651 5646 5640 5634 5628 5621 5614 5607 5600 5593 5587 5580 5574 5567 5562
5680 5682 5683 5684 5684 5685 5685 5686 5686 5686 5685 5684 5684 5683 5682 5681 5679 5677 5675 5673 5671 5668 5664 5661 5657 5653 5648 5643 5638 5633 5627 5621 5615 5608 5602 5595 5588 5582 5575 5568 5561 5554 5549 5543
5666 5667 5668 5669 5670 5670 5671 5671 5670 5670 5670 5669 5668 5667 5666 5665 5663 5661 5659 5657 5654 5650 5647 5643 5639 5634 5629 5624 5619 5613 5608 5602 5595 5589 5582 5576 5569 5562 5556 5549 5543 5537 5531 5526
5651 5653 5654 5654 5655 5655 5656 5655 5655 5655 5654 5653 5652 5651 5649 5648 5646 5644 5642 5639 5636 5633 5629 5625 5620 5615 5610 5605 5600 5594 5588 5582 5576 5569 5563 5556 5550 5543 5537 5531 5525 5520 5514 5509
5636 5637 5638 5639 5639 5640 5640 5639 5639 5638 5638 5637 5636 5634 5632 5630 5628 5626 5624 5621 5617 5614 5610 5605 5601 5596 5591 5585 5580 5574 5569 5563 5556 5550 5544 5538 5531 5525 5520 5514 5509 5503 5499 5494
5620 5621 5622 5622 5623 5623 5623 5623 5622 5621 5620 5619 5618 5616 5614 5612 5610 5608 5605 5602 5598 5594 5590 5586 5581 5576 5571 5566 5560 5555 5549 5544 5538 5532 5526 5520 5514 5508 5503 5497 5492 5488 5483 5478
5603 5604 5605 5605 5605 5605 5605 5605 5604 5603 5602 5601 5599 5597 5595 5593 5591 5588 5585 5582 5578 5575 5571 5566 5561 5556 5551 5546 5541 5536 5531 5526 5520 5514 5509 5503 5498 5493 5487 5482 5477 5472 5467 5463
5585 5586 5587 5587 5587 5587 5586 5585 5585 5584 5582 5581 5580 5578 5575 5573 5570 5568 5565 5561 5558 5554 5550 5546 5542 5537 5533 5528 5523 5518 5514 5509 5504 5499 5493 5488 5483 5478 5473 5467 5462 5457 5453 5448
5567 5568 5568 5568 5568 5567 5566 5566 5565 5564 5562 5561 5560 5558 5556 5553 5550 5548 5545 5541 5538 5535 5531 5527 5523 5519 5515 5511 5506 5502 5497 5493 5488 5483 5478 5473 5468 5463 5458 5453 5448 5443 5438 5434